Погода в Клетском

Россия / Волгоградская область     48°35′55″N   44°41′45″E
темп.,
°C
ветер,
м/с
пор.,
м/с
влажн.,
%
обл.,
%
осадки,
мм/ч
давл.,
гПа
погр.,
м
22 апреля, чт
чт2200:00+11юз35735 0.0 102064
03:00+10зсз3476100 0.0 102156
06:00+10зсз237389 0.0 102258
09:00+14з225463 0.0 1023501
12:00+17з234424 0.0 10231657
15:00+18зсз334040 0.0 10221839
18:00+17зюз1147100 0.0 102213
21:00+14сз1152100 0.0 102211
23 апреля, пт
пт2300:00+13ссв336068 0.0 102226
03:00+12св3366100 0.0 102141
06:00+12в1169100 0.0 102122
09:00+13сз4566100 0.0 1021406
12:00+15зсз2258100 0.2 1020665
15:00+15зсз655939 1.1 10191097
18:00+14сз346298 0.1 1018355
21:00+12зсз35755 0.1 1018102
24 апреля, сб
сб2400:00+11з22805 0.0 101720
03:00+10з3481100 0.0 101663
06:00+10зюз3879100 0.0 1017231
09:00+15зюз6852100 0.0 1017891
12:00+17зюз794627 0.3 10162064
15:00+18зюз8114279 0.3 10152086
18:00+14з71066100 0.3 1016844
21:00+12з357283 0.3 1017142
25 апреля, вс
вс2500:00+10зюз36742 0.0 1017123
03:00+9юз477757 0.0 1018125
06:00+9з5971100 0.0 1019344
09:00+11з7855100 0.0 1020950
12:00+12з6737100 0.0 10201425
15:00+13зсз4536100 0.0 10201554
18:00+12з2346100 0.0 1020167
21:00+10зюз2350100 0.0 102144
26 апреля, пн
пн2600:00+9ссв2455100 0.0 102081
03:00+9всв4761100 0.0 1020221
06:00+8всв3763100 0.0 1019311
09:00+11в5647100 0.0 1019968
12:00+11вюв4447100 0.0 10181390
15:00+9юв2361100 0.1 1017928
18:00+7юв2282100 1.7 1017265
21:00+7зюз2282100 1.8 1016181